Saint Simons Island, GA

7:03 PM EST on December 15, 2019 (GMT -0500)
McKinnon

Weather History for KSSI - October, 2019

Change the Weather History Date:

Saturday, October 26, 2019

  Actual Average Record
Temperature  
Mean Temperature 80 °F 67 °F  
Max Temperature 84 °F 75 °F 84 °F (1949)
Min Temperature 75 °F 59 °F 39 °F (1962)
Degree Days  
Heating Degree Days 0 2  
Month to date heating degree days 0 19  
Since 1 July heating degree days 0 19  
Cooling Degree Days 15 4  
Month to date cooling degree days 291 172  
Year to date cooling degree days 3278 2543  
Growing Degree Days 28 (Base 50)    
Moisture  
Dew Point 72 °F    
Average Humidity 80    
Maximum Humidity 85    
Minimum Humidity 74    
Precipitation  
Precipitation T in 0.09 in 0.69 in (1985)
Month to date precipitation 5.16 4.00  
Year to date precipitation 32.26 39.87  
Snow  
Snow 0.00 in - 0.00 in ()
Month to date snowfall 0.0  
Since 1 July snowfall 0.0  
Since 1 September snowfall 0.0  
Snow Depth 0.00 in    
Sea Level Pressure  
Sea Level Pressure 29.97 in    
Wind  
Wind Speed 10 mph (SE)    
Max Wind Speed 17 mph    
Max Gust Speed 22 mph    
Visibility 10 miles    
Events Rain    
T = Trace of Precipitation, MM = Missing Value Source: NWS Daily Summary

Daily Weather History Graph

Daily Weather History Graph

Search for Another Location

Airport or City:

Astronomy

Oct. 26, 2019 Rise Set
Actual Time 7:36 AM EDT 6:42 PM EDT
Civil Twilight 7:11 AM EDT 7:07 PM EDT
Nautical Twilight 6:42 AM EDT 7:35 PM EDT
Astronomical Twilight 6:14 AM EDT 8:03 PM EDT
Moon 5:42 AM EDT (10/26) 6:07 PM EDT (10/26)
Length of Visible Light 11h 55m
Length of Day
11h 06m
Waning Crescent, 3% of the Moon is Illuminated
Oct 26
Waning Crescent
Oct 27
New
Nov 4
First Quarter
Nov 12
Full
Nov 19
Last Quarter

Hourly Weather History & Observations

Time (EDT) Temp. Heat Index Dew Point Humidity Pressure Visibility Wind Dir Wind Speed Gust Speed Precip Events Conditions
12:53 AM 75.9 °F - 69.1 °F 79% 30.08 in 10.0 mi East 11.5 mph - N/A   Clear
1:53 AM 75.9 °F - 69.1 °F 79% 30.06 in 10.0 mi ESE 10.4 mph - 0.00 in Rain Light Rain
2:53 AM 75.9 °F - 68.0 °F 76% 30.05 in 10.0 mi ESE 6.9 mph - 0.00 in   Clear
3:53 AM 75.9 °F - 69.1 °F 79% 30.03 in 10.0 mi East 6.9 mph - 0.00 in Rain Light Rain
4:53 AM 75.0 °F - 69.1 °F 82% 30.01 in 10.0 mi ESE 8.1 mph - 0.00 in   Clear
5:53 AM 75.9 °F - 68.0 °F 76% 30.01 in 10.0 mi ESE 11.5 mph - 0.00 in   Clear
6:53 AM 75.9 °F - 68.0 °F 76% 30.00 in 10.0 mi ESE 9.2 mph - 0.00 in Rain Light Rain
7:53 AM 77.0 °F - 68.0 °F 74% 30.01 in 10.0 mi ESE 8.1 mph - 0.00 in   Overcast
8:53 AM 77.0 °F - 69.1 °F 76% 30.01 in 10.0 mi East 10.4 mph - 0.00 in   Mostly Cloudy
10:53 AM 80.1 °F 83.8 °F 72.0 °F 76% 30.01 in 10.0 mi East 9.2 mph - 0.00 in Rain Light Rain
11:53 AM 81.0 °F 85.8 °F 73.0 °F 77% 30.01 in 10.0 mi ESE 8.1 mph - 0.00 in Rain Light Rain
12:53 PM 81.0 °F 86.2 °F 73.9 °F 79% 29.99 in 10.0 mi ESE 9.2 mph - 0.00 in Rain Light Rain
1:53 PM 82.0 °F 87.9 °F 73.9 °F 76% 29.96 in 10.0 mi SE 12.7 mph - 0.00 in   Mostly Cloudy
2:53 PM 82.9 °F 89.4 °F 73.9 °F 74% 29.94 in 10.0 mi SE 12.7 mph 18.4 mph 0.00 in   Mostly Cloudy
3:53 PM 80.1 °F 84.2 °F 73.0 °F 79% 29.92 in 10.0 mi SE 10.4 mph - 0.00 in Rain Light Rain
4:40 PM 82.0 °F 87.9 °F 73.9 °F 76% 29.92 in 10.0 mi SE 15.0 mph - 0.00 in Rain Light Rain
4:53 PM 80.1 °F 84.5 °F 73.9 °F 81% 29.93 in 10.0 mi SE 12.7 mph - 0.00 in Rain Light Rain
5:53 PM 79.0 °F - 73.9 °F 84% 29.91 in 10.0 mi SE 10.4 mph - 0.00 in Rain Light Rain
6:53 PM 79.0 °F - 73.9 °F 84% 29.91 in 10.0 mi SE 10.4 mph - 0.00 in Rain Light Rain
7:53 PM 78.1 °F - 73.0 °F 84% 29.92 in 10.0 mi SSE 10.4 mph - 0.00 in Rain Light Rain
8:53 PM 78.1 °F - 73.9 °F 87% 29.92 in 10.0 mi SE 9.2 mph - 0.00 in Rain Rain
9:53 PM 78.1 °F - 73.9 °F 87% 29.94 in 10.0 mi SE 9.2 mph - N/A   Mostly Cloudy
10:53 PM 78.1 °F - 73.9 °F 87% 29.94 in 10.0 mi SSE 5.8 mph - N/A   Overcast
11:17 PM 78.1 °F - 73.0 °F 84% 29.94 in 10.0 mi SSE 6.9 mph - N/A   Overcast
11:51 PM 78.8 °F - 73.4 °F 83% 29.93 in 10.0 mi South 8.1 mph - N/A   Scattered Clouds
11:53 PM 78.1 °F - 73.0 °F 84% 29.94 in 10.0 mi South 8.1 mph - N/A   Partly Cloudy